Погода в Мандалуйонге

Филиппины     14°34′42″N   121°01′58″E
темп.,
°C
ветер,
м/с
пор.,
м/с
влажн.,
%
обл.,
%
осадки,
мм/ч
давл.,
гПа
погр.,
м
8 марта, пн
пн823:00+26в5670100 0.0 1015600
02:00+25в4571100 0.0 1013545
05:00+25всв347140 0.0 1014406
08:00+26всв346863 0.0 1015588
11:00+30всв3654100 0.0 10161025
14:00+31в575285 0.0 10131070
17:00+30в785612 0.0 1013958
20:00+27в686736 0.0 1014715
9 марта, вт
вт923:00+26всв467113 0.0 1015687
02:00+26в457125 0.0 1013749
05:00+26всв34721 0.0 1014586
08:00+26всв356739 0.0 1015729
11:00+30всв575460 0.0 10151252
14:00+31в685039 0.0 10121133
17:00+30в78560 0.0 1012996
20:00+27в67680 0.0 1014738
10 марта, ср
ср1023:00+26в68690 0.0 1016886
02:00+26всв48693 0.1 1014977
05:00+26в47702 0.1 1014780
08:00+27всв47653 0.1 1015982
11:00+30всв695632 0.0 10151537
14:00+31всв685349 0.0 10121362
17:00+29всв685656 0.0 10121105
20:00+27в586628 0.0 10151004
11 марта, чт
чт1123:00+26всв58680 0.0 1016937
02:00+26всв46700 0.0 1014750
05:00+25св34712 0.0 1014539
08:00+26всв366616 0.0 1015821
11:00+30всв475249 0.0 10151271
14:00+31всв685125 0.0 10121209
17:00+30в67550 0.0 10111054
20:00+28в576415 0.0 1014746
12 марта, пт
пт1223:00+27в356858 0.0 1014783
02:00+26всв357079 0.0 1013821
05:00+26св2370100 0.0 1013651
08:00+27св3666100 0.0 1014882
11:00+30св685884 0.0 10131398
14:00+30всв695792 0.1 10111381
17:00+29всв695968 0.0 10111003
20:00+27всв596784 0.0 1013872